Flag for Japan Weather past 2 weeks in Hamamatsu, Japan

Now
33 °F

Chilly.


Feels Like: 21 °F
Forecast: 34 / 43 °F
Wind: 20 mph from West

Location: Omaezaki

Current Time: Dec 18, 2014 at 6:55:32 AM

Latest Report: Dec 18, 2014 at 6:00 AM


Visibility: 13 mi

Pressure: 29.92 "Hg

Humidity: 73%

Dew point: 25 °F

Location of HamamatsuLocation

Historic Weather in Hamamatsu — Graph

°F

Hamamatsu temperature yesterday

Maximum temperature yesterday: 42 °F (at 12:00 AM)
Minimum temperature yesterday: 34 °F (at 11:00 PM)
Average temperature yesterday: 38 °F

Past Weeks' High & Low Weather Summary

 TemperatureHumidityPressure
High59 °F (Dec 11, 1:00 PM)100% (Dec 11, 9:00 AM)30.37 "Hg (Dec 11, 9:00 AM)
Low33 °F (Dec 18, 5:00 AM)33% (Dec 3, 11:00 AM)29.29 "Hg (Dec 16, 5:00 PM)
Average45 °F60%30.01 "Hg
* Reported Dec 3 5:00 AM — Dec 18 5:00 AM, Hamamatsu, Weather by CustomWeather, © 2014

Note: Actual official high and low records may vary slightly from our data, if they occured in-between our weather recording intervals... More about our weather records

Advertising

Hamamatsu weather history for previous 24 hours

 ConditionsComfort  
Time TempWeatherWind HumidityBarometerVisibility
5:00 AM
Dec 18
33 °FChilly.21 mph73%29.89 "Hg12 mi
4:00 AM33 °FChilly.24 mph68%29.86 "Hg12 mi
3:00 AM33 °FChilly.25 mph65%29.84 "Hg12 mi
2:00 AM34 °FChilly.25 mph60%29.83 "Hg12 mi
1:00 AM34 °FChilly.28 mph56%29.82 "Hg12 mi
12:00 AM34 °FChilly.26 mph56%29.81 "Hg12 mi
11:00 PM
Dec 17
34 °FChilly.26 mph54%29.81 "Hg12 mi
10:00 PM35 °FChilly.32 mph50%29.80 "Hg12 mi
9:00 PM36 °FChilly.30 mph45%29.77 "Hg12 mi
8:00 PM36 °FChilly.28 mph44%29.77 "Hg12 mi
7:00 PM36 °FChilly.31 mph40%29.76 "Hg12 mi
6:00 PM37 °FChilly.30 mph40%29.74 "Hg12 mi
5:00 PM38 °FChilly.28 mph39%29.72 "Hg12 mi
4:00 PM38 °FChilly.28 mph37%29.70 "Hg12 mi
3:00 PM38 °FChilly.30 mph34%29.69 "Hg12 mi
2:00 PM40 °FChilly.33 mph36%29.68 "Hg12 mi
1:00 PM40 °FChilly.30 mph36%29.69 "Hg12 mi
12:00 PM40 °FQuite cool.32 mph38%29.69 "Hg12 mi
11:00 AM41 °FQuite cool.32 mph40%29.71 "Hg12 mi
10:00 AM41 °FQuite cool.28 mph44%29.72 "Hg12 mi
9:00 AM39 °FChilly.29 mph45%29.71 "Hg12 mi
8:00 AM37 °FChilly.28 mph49%29.71 "Hg12 mi
7:00 AM37 °FChilly.30 mph50%29.70 "Hg12 mi
6:00 AM38 °FChilly.29 mph49%29.69 "Hg12 mi
Weather by CustomWeather, © 2014

See weather overviewHow to use our weather pages